Погода в Поросине

Россия / Томская область     56°32′59″N   84°45′39″E
темп.,
°C
ветер,
м/с
пор.,
м/с
влажн.,
%
обл.,
%
осадки,
мм/ч
давл.,
гПа
погр.,
м
17 апреля, сб
сб1701:00−1ссз3109593 1.8 1017384
04:00−3с588785 0.1 1020655
07:00−6с478032 0.1 1023592
10:00−5с34602 0.0 1024759
13:00−1ссз23502 0.0 10241094
16:00+1зсз22474 0.0 10241223
19:000зюз23570 0.0 1024718
22:00−4ююз26775 0.0 1023120
18 апреля, вс
вс1801:00−3ююз3972100 0.0 1022265
04:00−2ююз41174100 0.0 1019557
07:00−1ююз51176100 0.0 1016758
10:00+1ююз61169100 0.0 1013922
13:00+4ююз61164100 0.0 10101458
16:00+3ююз61175100 0.0 10081119
19:00+1ю61397100 0.6 1004997
22:00+1ю51198100 0.5 1000591
19 апреля, пн
пн1901:00+2зюз51297100 4.1 996994
04:00−4сз81493100 0.8 998965
07:00−8сз91689100 2.2 10081110
10:00−8сз81276100 0.4 10151012
13:00−5сз7959100 0.4 10201520
16:00−3сз6851100 0.0 10222014
19:00−4сз5759100 0.1 10241668
22:00−7ссз367480 0.1 1026569
20 апреля, вт
вт2001:00−8зсз26755 0.1 1027712
04:00−8зсз367749 0.0 1027573
07:00−8зсз35806 0.0 1028672
10:00−6зсз3459100 0.0 10281253
13:00−3з3450100 0.1 10271721
16:00−2зюз4645100 0.1 10251852
19:00−2зюз364981 0.1 10241718
22:00−3ююз2667100 0.0 1023279
21 апреля, ср
ср2101:00−3ююз4961100 0.0 1020715
04:00−4ю51081100 0.0 1019923
07:00−4ююв51193100 0.7 1017794
10:00−2ююв61087100 0.9 1017906
13:00−1юв5886100 2.0 1018916
16:000вюв5882100 0.9 1020929
19:000в4882100 1.3 1023940
22:00−1всв51187100 0.3 1026844